Location: Buchberg
(46.9333°N, 15.8500°E)
Time: 19:28:35
(UTC+00:00)

Meteor 1-14 Rocket - Pass Details

Date: 14 July 2020
Orbit: 834 x 918 km, 81.3° (Epoch: 06 August)

Event Time Altitude Azimuth Distance (km) Brightness Sun altitude
Exits shadow 00:22:23 34° 184° (S) 1,362 4.7 -19.1°
Maximum altitude 00:24:57 84° 99° (E) 859 4.2 -19.0°
Drops below altitude 10° 00:30:38 10° 12° (NNE) 2,509 7.9 -18.6°
Sets 00:33:06 0° 12° (NNE) 3,463 9.0 -18.5°
